Location: Coll
(42.4728°N, 0.7714°E)
Time: 12:24:56
(UTC+00:00)

PSLV R/B - Pass Details

Date: 23 October 2020
Orbit: 567 x 599 km, 98.2° (Epoch: 30 November)

Event Time Altitude Azimuth Distance (km) Brightness Sun altitude
Rises 05:19:08 0° 169° (S) 2,813 7.6 -11.8°
Reaches altitude 10° 05:21:17 10° 171° (S) 1,921 6.8 -11.4°
Maximum altitude 05:25:27 75° 257° (WSW) 622 3.9 -10.7°
Drops below altitude 10° 05:29:41 10° 344° (NNW) 1,947 6.4 -9.9°
Sets 05:31:52 0° 346° (NNW) 2,856 7.3 -9.5°
